Location: *
(77.5260°S, 42.9000°E)
Time: 19:37:31
(UTC+00:00)

Daily predictions for brighter satellites

Satellite Brightness Start Highest point End
(mag) Time Altitude Azimuth Time Altitude Azimuth Time Altitude Azimuth
ASTEX 1 3.8 16:14:25 10° N 16:19:31 74° W 16:24:39 10° S
Cosmos 1943 Rocket 2.8 16:14:19 10° WNW 16:19:41 44° N 16:25:02 10° E
Cosmos 1727 Rocket 4.2 16:14:26 10° SW 16:20:54 78° SE 16:27:23 10° NE
SL-19 R/B 4.3 16:18:00 10° ENE 16:22:06 82° SE 16:25:39 10° SW
Cosmos 540 Rocket 3.7 16:17:39 10° WNW 16:22:48 61° N 16:27:55 10° E
SL-16 R/B 3.7 16:21:32 10° NE 16:24:32 15° E 16:27:31 10° ESE
PAYLOAD A 4.4 16:19:58 10° SE 16:25:15 79° SW 16:30:41 10° NW
Nadezhda 3 Rocket 4.3 16:19:15 10° SSW 16:25:39 75° WNW 16:31:58 10° NNE
Meteor 1-29 3.5 16:22:18 10° ENE 16:25:47 50° SSE 16:29:13 10° SW
Meteor 1-19 Rocket 4.2 16:20:32 10° NNW 16:26:14 73° ENE 16:31:51 10° SE
Cosmos 1763 Rocket 3.7 16:21:15 10° W 16:26:19 60° N 16:31:24 10° ENE
Cosmos 1726 Rocket 3.8 16:21:54 10° SW 16:26:22 80° WNW 16:30:51 10° NNE
MSX 4.1 16:20:37 10° SE 16:26:29 80° SW 16:32:21 10° WNW
Cosmos 1378 Rocket 3.6 16:22:24 10° NNW 16:26:46 62° ENE 16:31:09 10° SSE
SJ-6B 4.3 16:23:53 10° SSE 16:26:53 20° E 16:29:54 10° NE
Cosmos 1300 3.0 16:24:00 10° SW 16:27:55 62° SE 16:31:50 10° ENE
NOAA 12 4.4 16:22:43 10° SSE 16:28:01 49° ENE 16:33:14 10° N
Meteor 2-21 4.5 16:22:02 10° N 16:28:06 64° ENE 16:34:11 10° SSE
Meteor 1-16 Rocket 4.5 16:22:35 10° SW 16:28:12 77° NW 16:33:59 10° NNE
ATLAS 3B R/B 4.0 16:22:05 10° NW 16:28:14 29° N 16:34:21 10° ENE
ATLAS 5 CENTAUR R/B 4.4 16:25:33 10° WNW 16:29:01 16° NW 16:32:15 10° N
Okean-O 2.9 16:24:43 10° SSE 16:29:10 50° ENE 16:33:36 10° N
CZ-4B R/B 3.2 16:24:09 10° SE 16:29:36 73° NE 16:35:08 10° NNW
Cosmos 1869 4.3 16:26:36 10° WSW 16:30:30 42° S 16:34:23 10° E
CZ-2D R/B 4.5 16:26:54 10° ESE 16:31:08 51° SSW 16:35:27 10° W
GP-B 3.3 16:26:54 10° N 16:31:28 85° W 16:36:04 10° S
SMAP 3.2 16:27:41 10° SSE 16:32:25 58° ENE 16:37:08 10° NNW
Cosmos 468 Rocket 4.3 16:27:56 10° W 16:33:04 59° NNW 16:38:14 10° ENE
Cosmos 1809 Rocket 4.5 16:27:56 10° N 16:34:02 68° ENE 16:40:12 10° SSE
SL-24 R/B 4.5 16:28:55 10° S 16:34:11 79° E 16:39:09 10° N
Cosmos 1842 4.1 16:31:16 10° NNE 16:34:47 30° E 16:38:19 10° SSE
Cosmos 1703 Rocket 4.0 16:31:51 10° NW 16:36:22 71° SW 16:40:58 10° SE
PSLV R/B 4.2 16:32:48 10° E 16:37:10 53° SSE 16:41:25 10° WSW
Cosmos 2242 Rocket 4.3 16:32:54 10° WNW 16:37:28 63° SW 16:42:08 10° SE
Cosmos 2221 Rocket 3.8 16:32:52 10° NW 16:37:33 87° SW 16:42:14 10° SE
Cosmos 1939 Rocket 3.7 16:33:52 10° SSE 16:37:43 32° E 16:41:29 10° NNE
H-2A R/B 2.8 16:34:13 10° SSE 16:38:06 57° ENE 16:41:55 10° NNW
H-2A R/B 3.2 16:34:18 10° SE 16:38:47 66° SSW 16:43:21 10° WNW
Feng Yun 1-1 Rocket 4.3 16:33:45 10° SE 16:39:12 59° ENE 16:44:39 10° NNW
Cosmos 2228 Rocket 4.1 16:34:52 10° W 16:39:21 47° S 16:43:53 10° ESE
Meteor 1-18 Rocket 4.3 16:34:02 10° NW 16:39:58 85° NE 16:45:47 10° SE
Cosmos 1515 3.7 16:38:02 10° NNW 16:41:58 79° ENE 16:45:53 10° SE
Cosmos 1025 Rocket 3.8 16:38:46 10° NNE 16:42:48 35° E 16:46:54 10° SSE
AQUARIUS 4.3 16:38:32 10° SSE 16:43:08 61° ENE 16:47:42 10° NNW
Cosmos 1536 Rocket 4.2 16:39:21 10° NNE 16:43:33 38° E 16:47:47 10° SSE
Landsat 4 3.9 16:40:50 10° NNE 16:44:41 77° NW 16:48:32 10° SW
Okean 2 3.8 16:40:42 10° N 16:44:46 44° ENE 16:48:52 10° SSE
IDEFIX/ARIANE 42P 3.1 16:39:53 10° SE 16:45:09 67° SSW 16:50:24 10° WNW
FREGAT/IRIS 4.0 16:42:52 10° SE 16:45:10 20° E 16:47:27 10° NE
Cosmos 1151 Rocket 4.1 16:41:40 10° WSW 16:46:01 45° S 16:50:22 10° ESE
CZ-2D R/B 4.0 16:42:28 10° SSE 16:46:10 34° E 16:49:49 10° NNE
Cosmos 1656 4.4 16:41:36 10° NNW 16:46:19 30° NE 16:51:06 10° ESE
Cosmos 2228 3.4 16:42:00 10° SSW 16:46:20 69° WNW 16:50:40 10° NNE
Okean 3 3.6 16:42:56 10° NW 16:47:20 90° N 16:51:44 10° SE
Cosmos 1315 Rocket 3.2 16:43:51 10° WNW 16:47:52 69° SSW 16:51:57 10° SE
Aureole 2 Rocket 3.1 16:44:30 10° NW 16:48:03 40° NNE 16:51:32 10° E
Cosmos 1862 Rocket 4.4 16:44:42 10° WNW 16:49:04 55° SSW 16:53:28 10° SE
USA 32 4.1 16:43:50 10° N 16:49:08 64° E 16:54:27 10° SSE
Cosmos 1844 Rocket 4.2 16:44:38 10° WSW 16:49:28 30° NW 16:54:18 10° NNE
Envisat 3.2 16:44:39 10° SSE 16:49:44 52° ENE 16:54:48 10° N
Cosmos 1674 Rocket 3.6 16:46:07 10° NNW 16:50:42 81° ENE 16:55:18 10° SE
Helios 1A Rocket 3.1 16:47:36 10° SE 16:51:54 87° SW 16:56:09 10° NW
H-2A R/B 3.1 16:47:58 10° SSE 16:52:29 27° E 16:56:54 10° NE
Cosmos 1814 Rocket 4.3 16:47:48 10° W 16:53:07 61° N 16:58:21 10° ENE
Cosmos 1066 Rocket 4.5 16:48:36 10° N 16:54:24 57° ENE 17:00:14 10° SSE
Resurs 01 Rocket 3.1 16:51:35 10° SSE 16:54:58 20° ESE 16:58:20 10° ENE
Cosmos 1782 4.0 16:51:06 10° W 16:55:07 45° SSW 16:59:08 10° ESE
MOS 1 Rocket 3.5 16:50:56 10° NNE 16:55:19 66° WNW 16:59:48 10° SSW
PSLV R/B 4.1 16:51:52 10° SE 16:55:41 70° SW 16:59:32 10° WNW
Cosmos 1812 3.7 16:52:36 10° WNW 16:56:30 53° SSW 17:00:26 10° SE
Cosmos 2221 3.2 16:52:09 10° SW 16:56:33 51° SSE 17:00:56 10° E
ADEOS II 2.7 16:51:37 10° ESE 16:56:53 59° S 17:02:09 10° W
Meteor 2-21 Rocket 4.5 16:51:13 10° NNW 16:57:21 69° ENE 17:03:29 10° SSE
Cosmos 2123 Rocket 4.2 16:51:24 10° SW 16:57:41 71° SE 17:03:59 10° NE
Cosmos 1709 Rocket 4.1 16:52:06 10° N 16:58:29 70° ENE 17:04:50 10° SSE
CZ-4B DEB 4.3 16:53:13 10° SE 16:58:49 90° NE 17:04:24 10° NW
SJ-12 4.2 16:54:45 10° SE 16:59:01 79° SW 17:03:16 10° NW
Cosmos 389 Rocket 4.3 16:56:45 10° ENE 16:59:08 17° E 17:01:35 10° SE
ARGOS 4.2 16:54:49 10° SSE 16:59:32 28° E 17:04:13 10° NE
Meteor 1-31 Rocket 3.5 16:57:26 10° SE 17:01:18 60° SW 17:05:11 10° WNW
Cosmos 2058 Rocket 3.4 16:56:46 10° SSW 17:01:21 71° WNW 17:05:58 10° NNE
Meteor 2-4 Rocket 3.9 16:55:36 10° NNW 17:01:38 79° NE 17:07:38 10° SE
Cosmos 2297 4.4 16:56:39 10° W 17:02:03 43° NNW 17:07:25 10° NE
Helios 1B rocket 2.6 17:01:53 10° NE 17:06:07 78° SE 17:10:23 10° SW
Cosmos 1400 Rocket 3.6 17:02:43 10° W 17:06:57 58° SSW 17:11:10 10° ESE
PSLV R/B 4.4 17:03:43 10° SE 17:07:55 53° SSW 17:12:07 10° W
Okean 1-7 3.7 17:03:53 10° WNW 17:08:14 62° SW 17:12:38 10° SE
Okean O Rocket 1.8 17:04:02 10° SE 17:08:32 84° SW 17:13:00 10° NW
Resurs 1-4 Rocket 2.6 17:03:38 10° E 17:08:59 60° S 17:14:18 10° WSW
Cosmos 1356 Rocket 4.2 17:06:01 10° WSW 17:10:19 54° S 17:14:40 10° E
Cosmos 1606 Rocket 4.3 17:06:17 10° SSW 17:10:39 55° WNW 17:15:03 10° N
Meteor 1-13 Rocket 4.3 17:05:06 10° NNW 17:10:56 77° NE 17:16:40 10° SE
Meteor PRIRODA 4.4 17:07:51 10° SE 17:11:40 60° SW 17:15:27 10° WNW
Radarsat Rocket 4.0 17:06:07 10° SE 17:12:03 70° NE 17:18:15 10° NW
CENTAUR R/B 3.9 17:07:07 10° WNW 17:12:15 23° N 17:16:53 10° NE
Cosmos-2242 3.1 17:08:09 10° SW 17:12:32 71° SE 17:16:41 11° NE
CZ-2C R/B 3.9 17:09:57 10° ESE 17:13:35 42° S 17:17:15 10° W
Cosmos 2112 Rocket 4.4 17:09:10 10° NW 17:14:18 46° NE 17:19:29 10° ESE
Cosmos 2369 Rocket 2.7 17:09:30 10° WNW 17:14:54 45° N 17:20:16 10° ENE
Cosmos 1697 Rocket 3.5 17:10:06 10° NNW 17:14:58 30° NE 17:19:52 10° ESE
USA 186 2.7 17:13:45 10° SE 17:15:42 20° E 17:17:11 13° NE
IRS-1D 4.1 17:11:02 10° E 17:16:03 57° S 17:21:00 10° WSW
Cosmos 1340 Rocket 3.2 17:12:17 10° SW 17:16:28 64° SSE 17:20:29 11° ENE
Cosmos 2322 Rocket 3.5 17:12:39 10° NNE 17:16:33 19° ENE 17:20:29 10° ESE
Cosmos 841 Rocket 3.8 17:11:37 10° W 17:16:49 59° NNW 17:21:48 11° ENE
Cosmos 1812 Rocket 3.7 17:13:06 10° SW 17:17:42 88° WNW 17:22:14 10° NNE
Cosmos 1656 Rocket 4.1 17:12:35 10° WNW 17:17:49 44° N 17:23:07 10° ENE
Okean 1 3.9 17:14:07 10° WNW 17:18:16 66° SW 17:22:25 10° SE
Cosmos 921 Rocket 4.2 17:14:52 10° WSW 17:18:47 35° NW 17:22:41 10° NNE
Meteor 1-4 Rocket 4.2 17:16:53 12° ENE 17:18:59 18° E 17:21:35 10° SE
Cosmos 1908 3.5 17:15:22 10° SW 17:19:18 71° WNW 17:23:13 10° NNE
Cosmos 2074 Rocket 4.1 17:14:24 10° N 17:20:35 60° ENE 17:26:50 10° SSE
YAOGAN 1 2.8 17:16:17 10° SSE 17:20:40 53° ENE 17:25:01 10° N
ALOS 2.5 17:15:53 10° SE 17:20:41 80° SW 17:25:29 10° NW
CZ-4B R/B 3.5 17:17:07 10° SE 17:20:54 55° SSW 17:24:34 10° WNW
Cosmos 773 Rocket 4.2 17:15:39 10° WNW 17:20:55 58° NNE 17:26:13 10° E
Cosmos 1674 4.3 17:18:48 12° ENE 17:21:17 20° ESE 17:24:12 10° SSE
Cosmos 1745 Rocket 4.2 17:15:07 10° NNW 17:21:37 90° SE 17:28:07 10° SE
Cosmos 2341 Rocket 4.4 17:16:09 10° NNE 17:22:07 45° E 17:28:10 10° SSE
CORIOLIS 4.2 17:16:39 10° SE 17:22:13 72° ENE 17:27:47 10° NNW
Cosmos 1378 3.5 17:19:36 10° N 17:23:16 45° ENE 17:26:57 10° SSE
Cosmos 2208 Rocket 4.4 17:18:27 10° W 17:23:49 58° NNW 17:28:55 12° ENE
PAYLOAD B 4.4 17:19:49 10° SE 17:25:29 85° SW 17:31:06 10° NW
Cosmos 220 Rocket 4.3 17:22:59 10° WNW 17:27:24 56° N 17:31:51 10° E
Meteor 1-27 Rocket 4.3 17:21:56 10° WNW 17:27:44 68° SSW 17:33:39 10° ESE
Cosmos 1470 4.3 17:24:58 10° SSW 17:28:41 37° W 17:32:22 10° NNW
Cosmos 1484 Rocket 3.5 17:25:04 10° SE 17:29:02 60° SW 17:33:02 10° WNW
Cosmos 1842 Rocket 3.9 17:25:10 10° SW 17:29:44 62° SE 17:33:53 12° ENE
Cosmos 1707 3.5 17:26:48 10° NNE 17:30:25 33° E 17:34:01 10° SSE
Cosmos 1975 Rocket 3.0 17:26:25 10° NNW 17:30:51 74° ENE 17:35:17 10° SE
Cosmos 2369 4.4 17:26:30 10° NNW 17:31:39 34° NE 17:36:48 10° ESE
Ariane Rocket 3.3 17:26:57 10° SSE 17:31:57 45° ENE 17:36:54 10° N
FengYun 1-2 T 4.3 17:28:23 10° SSE 17:33:56 61° ENE 17:39:29 10° NNW
Mayak -0.9 17:30:23 10° NNE 17:34:43 72° WNW 17:39:06 10° SSW
FENGYUN 3A 3.9 17:30:29 10° SE 17:36:03 83° SW 17:41:35 10° NW
Cosmos 1356 4.3 17:32:35 10° SW 17:36:04 49° WNW 17:39:32 10° N
Cosmos 1953 3.6 17:32:11 10° SSW 17:36:05 41° W 17:39:57 10° N
CSL-04 Rocket 3.7 17:31:28 10° SE 17:36:48 57° ENE 17:42:06 10° NNW
Cosmos 2219 Rocket 4.0 17:35:09 10° ENE 17:36:50 12° E 17:38:48 10° ESE
Cosmos 2278 Rocket 3.4 17:32:19 10° WSW 17:37:22 33° NW 17:42:26 10° NNE
CZ-4 R/B 3.9 17:33:05 12° NE 17:37:28 85° SE 17:42:16 10° SW
CZ-4 R/B 1.4 17:34:57 10° SE 17:39:06 65° ENE 17:43:09 10° NNW
deb Chang Zheng 4 4.3 17:35:03 10° E 17:39:20 52° S 17:43:35 10° WSW
CSL-04 Debris 4.3 17:34:38 10° SE 17:40:10 59° ENE 17:45:38 10° NNW
Meteor 2-14 Rocket 4.5 17:34:30 10° NNW 17:40:43 87° ENE 17:46:55 10° SE
CZ-2C R/B 3.9 17:36:57 10° SSE 17:41:19 29° E 17:45:08 12° NE
CZ-4B R/B 3.8 17:37:09 11° ENE 17:42:19 70° SSE 17:47:30 10° SW
Cosmos 2218 Rocket 4.5 17:36:34 10° NNE 17:42:22 42° E 17:48:11 10° SSE
NOAA 6 4.2 17:37:05 10° SE 17:42:22 81° SW 17:47:37 10° NW
YAOGAN 6 2.5 17:38:46 10° SSE 17:42:23 69° ENE 17:46:00 10° NNW
Cosmos 923 Rocket 4.2 17:37:24 10° NW 17:42:34 53° NNE 17:47:45 10° E
Cosmos 1680 Rocket 3.7 17:37:21 10° NW 17:42:34 52° NNE 17:47:49 10° ESE
CZ-2C R/B 3.1 17:37:41 10° SE 17:42:49 61° SSW 17:47:47 10° WNW
NPP 4.1 17:37:29 10° E 17:42:55 64° SSE 17:48:21 10° WSW
CZ-2D R/B 2.6 17:37:48 10° E 17:43:09 63° SSE 17:48:36 10° WSW
ADEOS 4.2 17:38:02 10° ESE 17:43:18 62° S 17:48:34 10° W
Cosmos 2154 Rocket 4.2 17:37:08 10° N 17:43:24 59° E 17:49:44 10° SSE
Cosmos 1726 2.9 17:39:58 10° SSW 17:43:41 51° WNW 17:47:24 10° N
Meteor 2-16 Rocket 4.5 17:38:05 10° NNW 17:44:19 82° ENE 17:50:36 10° SE
Meteor 1-23 Rocket 4.3 17:41:35 10° NNW 17:47:25 79° NE 17:53:20 10° SE
Cosmos 2360 Rocket 3.6 17:43:55 11° NNE 17:47:27 18° ENE 17:51:14 10° ESE
Cosmos 2366 rocket 4.5 17:41:39 10° NNE 17:47:31 43° E 17:53:22 10° SSE
Cosmos 1933 4.5 17:44:03 10° WSW 17:48:04 43° S 17:52:04 10° E
Cosmos 1455 2.3 17:44:20 10° SW 17:48:13 70° SE 17:51:24 15° NE
Cosmos 1606 3.9 17:44:42 10° WSW 17:48:25 40° S 17:52:06 10° ESE
ARIANE 5 R/B 3.1 17:43:27 10° E 17:48:30 58° S 17:53:34 10° WSW
Cosmos 405 3.2 17:45:59 10° N 17:49:29 50° ENE 17:53:01 10° SE
Terra 3.6 17:47:06 10° SSE 17:50:22 18° ESE 17:53:25 11° ENE
CZ-2C R/B 4.2 17:45:21 10° NNW 17:50:28 37° W 17:55:30 10° SSW
HJ-1C 3.7 17:47:49 10° SSE 17:51:11 47° ENE 17:54:31 10° N
Cosmos 1980 Rocket 2.9 17:46:23 10° NNW 17:51:21 31° NE 17:56:19 10° ESE
Cosmos 1538 Rocket 4.2 17:46:38 10° WNW 17:52:01 60° NNE 17:57:23 10° E
Cosmos 2098 Rocket 3.0 17:47:35 10° NW 17:52:15 84° SW 17:55:58 10° SE
SeaSat 1 2.8 17:48:13 10° ENE 17:53:04 47° N 17:57:56 10° WNW
METEOR-M 4.4 17:48:06 10° SE 17:53:34 76° SW 17:59:00 10° WNW
Cosmos 1570 Rocket 4.5 17:48:50 10° WSW 17:54:01 52° NNW 17:58:28 14° NE
Meteor 2-10 Rocket 3.7 17:50:39 10° SW 17:56:01 85° SE 18:00:54 14° NE
IRS-1C Rocket 4.2 17:51:25 10° SE 17:56:51 89° SW 18:02:14 10° NW
SL-8 Rocket 4.3 17:51:59 10° NNE 17:57:59 49° E 18:04:04 10° SSE
Meteor 1-29 3.0 17:55:35 15° NE 17:58:27 89° SE 18:02:01 10° SW
Cosmos 2184 Rocket 4.1 17:52:20 10° NNW 17:58:48 73° ENE 18:05:15 10° SSE
Tsikada Rocket 4.5 17:54:04 10° SW 18:00:33 62° SSE 18:07:00 10° ENE
SPOT 3 Rocket 4.1 17:56:29 10° SSE 18:01:33 42° E 18:06:34 10° N
SJ-6B 3.3 17:58:41 10° SSE 18:02:29 40° ENE 18:06:20 10° N
Cosmos 1943 Rocket 2.8 17:57:26 10° W 18:02:46 43° NNW 18:07:15 14° NE
CZ-4 R/B 4.5 17:58:45 10° SE 18:03:03 78° ENE 18:07:21 10° NNW
Meteor 1-21 4.4 17:57:51 10° N 18:03:39 60° ENE 18:09:29 10° SE
Cosmos 1300 2.9 17:59:49 10° SW 18:03:45 70° WNW 18:07:10 13° NNE
Cosmos 540 Rocket 3.8 17:59:01 10° W 18:04:06 55° NNW 18:08:24 14° NE
ERS-1 Rocket 4.4 18:00:04 10° SSE 18:04:09 23° ESE 18:07:21 14° ENE
Cosmos 1378 Rocket 3.9 18:00:11 10° NW 18:04:37 73° SW 18:09:04 10° SE
Okean-O 2.7 18:01:27 10° SE 18:06:02 89° SW 18:10:35 10° NW
Cosmos 1727 Rocket 4.4 18:00:05 10° SSW 18:06:28 68° WNW 18:12:51 10° N
SL-16 R/B 3.2 18:02:23 10° N 18:06:59 25° NE 18:11:35 10° ESE
Cosmos 1869 3.8 18:03:21 10° SW 18:07:22 55° SSE 18:10:53 13° ENE
Cosmos 1763 Rocket 4.0 18:02:48 10° WSW 18:07:46 48° NNW 18:11:51 15° NE
MSX 4.4 18:02:20 10° ESE 18:08:07 64° SSW 18:13:54 10° W
NOAA 12 4.1 18:02:53 10° SE 18:08:21 84° NE 18:13:46 10° NW
Meteor 1-19 Rocket 4.5 18:03:59 10° WNW 18:09:43 75° SSW 18:15:20 10° SE
SMAP 3.3 18:05:16 10° SE 18:10:03 81° SW 18:14:50 10° NW
CZ-4B R/B 3.4 18:04:57 10° SE 18:10:23 76° SSW 18:15:53 10° WNW
Cosmos 1842 3.2 18:06:27 10° NNW 18:10:24 66° ENE 18:14:23 10° SE
H-2A R/B 3.1 18:08:34 10° SE 18:12:29 72° SW 18:16:21 10° NW
Cosmos 1939 Rocket 2.9 18:09:02 10° SSE 18:13:17 66° ENE 18:17:26 10° NNW
PSLV R/B 3.7 18:10:01 15° NE 18:13:44 77° SE 18:18:09 10° SW
AQUA 4.3 18:09:08 10° E 18:13:56 60° SSE 18:18:45 10° WSW
H-2A R/B 3.6 18:09:41 10° ESE 18:14:02 52° S 18:18:30 10° W
NOAA 11 4.3 18:08:48 10° SSE 18:14:21 63° ENE 18:19:54 10° NNW
Cosmos 2278 4.2 18:10:32 10° NNW 18:15:47 37° NNE 18:21:03 10° E
FREGAT/IRIS 2.7 18:13:39 10° SSE 18:16:33 51° ENE 18:19:26 10° N
ATLAS 3B R/B 4.1 18:11:19 10° WNW 18:17:15 26° NNW 18:22:19 13° NNE
Cosmos 1515 4.5 18:13:57 10° WNW 18:17:50 57° SW 18:21:43 10° SE
Cosmos 2228 Rocket 4.0 18:13:47 10° WSW 18:18:18 49° SSE 18:22:51 10° E
Cosmos 158 Rocket 4.1 18:14:51 10° NW 18:19:42 49° NNE 18:24:29 10° E
CBERS-1 4.4 18:14:45 10° ENE 18:19:56 65° SSE 18:25:08 10° WSW
Cosmos 1025 Rocket 3.0 18:15:35 10° NNW 18:20:02 70° ENE 18:24:32 10° SE
AQUARIUS 4.4 18:15:29 10° SE 18:20:06 77° SW 18:24:43 10° NW
Feng Yun 1-1 Rocket 4.3 18:15:22 10° SE 18:20:53 87° SW 18:26:25 10° NW
CZ-2D R/B 3.3 18:17:03 10° SSE 18:21:04 72° ENE 18:25:03 10° NNW
Cosmos 1536 Rocket 3.6 18:16:33 10° NNW 18:21:06 75° ENE 18:25:40 10° SE
Cosmos 1626 3.7 18:19:16 15° ENE 18:21:06 21° E 18:24:03 10° SSE
Okean 2 3.5 18:17:07 10° NNW 18:21:25 88° NE 18:25:46 10° SE
Cosmos 1437 Rocket 4.0 18:19:13 17° NE 18:21:27 27° E 18:24:56 10° SE
Aureole 2 Rocket 2.8 18:18:13 10° WNW 18:21:52 49° N 18:25:00 13° ENE
Cosmos 1151 Rocket 3.8 18:19:50 10° SW 18:24:16 52° SSE 18:28:41 10° ENE
IDEFIX/ARIANE 42P 3.3 18:19:20 10° ESE 18:24:31 57° S 18:29:42 10° W
SL-08 RB Rocket 4.2 18:20:26 10° SSE 18:24:48 40° E 18:28:36 13° NNE
Cosmos 1315 Rocket 3.7 18:20:55 10° W 18:24:53 52° S 18:28:53 10° ESE
Okean 3 4.4 18:20:36 10° WNW 18:24:55 55° SSW 18:29:14 10° SE
Helios 1A Rocket 3.8 18:22:48 10° SE 18:27:00 57° SSW 18:31:11 10° W
Cosmos 2327 Rocket 4.5 18:21:51 10° NNW 18:28:03 77° ENE 18:34:23 10° SSE
Resurs 1-3 4.2 18:23:54 10° SSE 18:28:11 41° E 18:31:51 13° N
IRS-P3 4.5 18:23:17 10° ENE 18:28:40 67° SSE 18:34:05 10° WSW
Cosmos 1674 Rocket 4.3 18:24:15 10° WNW 18:28:47 61° SW 18:33:21 10° SE
Cosmos 1656 4.0 18:23:54 10° NW 18:29:03 41° NNE 18:34:16 10° E
Envisat 3.1 18:23:59 10° SE 18:29:13 89° NE 18:34:26 10° NW
USA 32 4.4 18:24:50 10° NW 18:30:11 73° WSW 18:35:35 10° SSE
Meteor 1-24 Rocket 4.4 18:27:06 14° NNE 18:31:49 40° E 18:37:12 10° SSE
Cosmos 1782 4.0 18:28:08 10° WSW 18:32:08 43° S 18:36:07 10° E
Resurs 01 Rocket 2.3 18:28:20 10° SSE 18:32:36 39° E 18:35:58 15° NNE
Cosmos 2333 Rocket 3.8 18:30:53 15° NE 18:32:44 17° ENE 18:36:19 10° ESE
Cosmos 1892 Rocket 3.9 18:28:37 11° N 18:32:48 49° ENE 18:37:07 10° SSE
Cosmos 1812 4.1 18:29:08 10° WSW 18:32:56 41° S 18:36:44 10° ESE
MONITOR-E 3.9 18:30:05 10° SE 18:33:02 68° ENE 18:35:58 10° NNW
H-2A R/B 2.4 18:27:51 10° SSE 18:33:04 49° ENE 18:38:07 10° N
Cosmos 389 Rocket 3.3 18:30:37 16° NNE 18:33:05 35° ENE 18:36:32 10° SE
Cosmos 1328 Rocket 4.2 18:29:58 10° SW 18:34:26 55° SSE 18:38:39 11° ENE
Cosmos 2221 2.7 18:30:03 10° SW 18:34:33 79° SE 18:38:00 17° NE
Cosmos 1814 Rocket 4.5 18:29:35 10° WSW 18:34:46 49° NNW 18:38:44 16° NE
Meteor 1-31 Rocket 4.1 18:31:44 10° ESE 18:35:28 43° SSW 18:39:12 10° W
ADEOS II 2.6 18:31:02 10° E 18:36:19 62° SSE 18:41:38 10° WSW
Cosmos 1066 Rocket 4.4 18:31:10 10° NW 18:37:10 90° SW 18:43:10 10° SE
Okean 1-7 Rocket 3.9 18:34:07 10° N 18:38:40 53° ENE 18:43:14 10° SSE
Cosmos 1295 Rocket 4.5 18:32:55 10° NNW 18:39:05 71° ENE 18:45:22 10° SSE
ARGOS 3.4 18:35:35 10° SSE 18:40:57 50° ENE 18:46:17 10° N
Helios 1B rocket 2.9 18:38:12 15° NNE 18:41:37 58° WNW 18:45:51 10° SW
Cosmos 2123 Rocket 4.1 18:37:05 10° SSW 18:43:23 77° WNW 18:48:46 15° NNE
Cosmos 2237 Rocket 4.0 18:41:54 12° ENE 18:43:33 13° E 18:46:04 10° ESE
Cosmos 1400 Rocket 3.7 18:39:46 10° WSW 18:43:58 53° S 18:48:08 10° E
Cosmos 1709 Rocket 4.3 18:37:34 10° NW 18:44:02 76° SW 18:50:26 10° SE
Okean O Rocket 2.4 18:40:25 10° SE 18:44:49 57° SSW 18:49:12 10° W
Meteor 2-4 Rocket 4.2 18:38:51 10° WNW 18:44:54 73° SSW 18:50:54 10° ESE
Okean 1-7 4.2 18:42:09 10° W 18:46:24 46° SSW 18:50:41 10° ESE
USA 186 1.1 18:44:40 10° SE 18:47:06 57° ENE 18:48:57 17° NNW
CZ-2C R/B 3.9 18:44:03 10° E 18:47:40 43° SSE 18:51:20 10° WSW
Cosmos 1356 Rocket 3.8 18:43:25 10° SW 18:47:49 70° SSE 18:51:34 14° ENE
Resurs 1-4 Rocket 2.3 18:43:42 13° ENE 18:48:39 75° SSE 18:54:05 10° SW
Meteor 2-5 Rocket 4.2 18:44:06 12° N 18:49:22 48° ENE 18:54:58 10° SSE
Cosmos-2242 3.3 18:45:51 10° SSW 18:50:11 63° WNW 18:53:32 16° N
Cosmos 1048 Rocket 4.3 18:46:09 10° NW 18:51:21 46° NE 18:56:31 10° ESE
IRS-1A Rocket 4.4 18:46:24 10° SE 18:52:22 68° ENE 18:58:23 10° NNW
Cosmos 1340 Rocket 2.9 18:48:56 10° SW 18:53:09 79° NW 18:56:05 19° NNE
Meteor 1-4 Rocket 3.1 18:51:05 19° NNE 18:53:18 39° ENE 18:56:48 10° SE
Meteor 2-2 Rocket 4.3 18:47:56 10° SW 18:53:45 89° NW 18:58:20 17° NE
SPOT 5 4.0 18:50:32 10° SSE 18:54:27 26° E 18:56:52 17° NE
IRS-1D 3.8 18:50:08 11° ENE 18:55:06 69° SSE 19:00:09 10° SW
Cosmos 1812 Rocket 4.5 18:51:03 10° SSW 18:55:24 45° W 18:59:29 11° N
CZ-4B R/B 4.0 18:52:04 10° ESE 18:55:45 43° S 18:59:19 10° WSW
Cosmos 2112 Rocket 4.1 18:50:42 10° WNW 18:56:01 60° NNE 19:01:23 10° E
Cosmos 1674 3.2 18:53:37 18° NNE 18:56:07 42° ENE 18:59:51 10° SSE
YAOGAN 1 2.7 18:52:37 10° SE 18:57:05 84° SW 19:01:33 10° NW
ALOS 3.1 18:53:18 10° SE 18:58:00 56° SSW 19:02:40 10° W
Cosmos 1697 Rocket 3.1 18:52:43 10° NW 18:58:01 41° NNE 19:03:20 10° E
Cosmos 2369 Rocket 2.9 18:52:57 10° W 18:58:12 39° NNW 19:02:03 17° NNE
Cosmos 841 Rocket 4.1 18:53:16 10° WSW 18:58:17 45° NW 19:01:53 18° NNE
Cosmos 1378 3.2 18:54:40 10° NW 18:58:31 85° SW 19:02:22 10° SE
COSMOS 2455 4.4 18:57:47 15° NE 18:58:43 15° ENE 19:01:58 10° E
Cosmos 2322 Rocket 2.9 18:54:14 10° NNW 18:59:13 31° NE 19:04:14 10° ESE
Radarsat Rocket 4.1 18:54:31 10° ESE 19:00:28 84° SSW 19:06:37 10° WNW
Cosmos 1515 Rocket 4.1 18:56:04 10° SW 19:00:31 56° SSE 19:04:42 11° ENE
Cosmos 1656 Rocket 4.1 18:55:32 10° W 19:00:44 42° NNW 19:04:46 16° NE
CENTAUR R/B 4.1 18:56:41 10° WNW 19:00:59 18° NW 19:04:13 12° N
Cosmos 773 Rocket 4.1 18:57:14 10° W 19:02:33 61° N 19:07:52 10° ENE
CORIOLIS 4.5 18:57:07 10° SE 19:02:41 76° SSW 19:08:14 10° WNW
Cosmos 1484 Rocket 4.2 18:59:23 10° ESE 19:03:10 43° SSW 19:07:02 10° W
MetOp-A 4.4 18:58:28 10° SSE 19:03:49 50° ENE 19:08:28 13° N
Cosmos 220 Rocket 4.4 19:01:07 10° W 19:05:28 50° NNW 19:08:36 18° NE
Cosmos 1707 2.7 19:01:59 10° NNW 19:05:58 72° ENE 19:09:57 10° SE
Cosmos 2074 Rocket 4.1 18:59:37 10° NW 19:05:59 84° SW 19:12:23 10° SE
SJ-11-01 4.3 19:01:13 10° SE 19:06:02 70° ENE 19:10:50 10° NNW
Cosmos 2341 Rocket 4.0 19:00:59 10° NNW 19:07:20 77° ENE 19:13:46 10° SSE
Cosmos 1842 Rocket 3.7 19:03:16 10° SW 19:07:52 79° WNW 19:11:03 19° NNE
Cosmos 1975 Rocket 3.6 19:04:29 10° WNW 19:08:55 64° SW 19:13:21 10° SE
Mayak 0.1 19:06:52 10° NNW 19:10:53 36° W 19:14:56 10° SSW
Aureole 1 Rocket 4.2 19:09:35 20° NE 19:11:02 24° ENE 19:14:59 10° ESE
Ariane Rocket 3.0 19:06:16 10° SE 19:11:29 80° NE 19:16:40 10° NW
Meteor 1-27 Rocket 4.4 19:05:57 10° WSW 19:11:44 62° S 19:17:39 10° E
SL-16 R/B 4.2 19:12:13 10° ENE 19:13:59 11° E 19:15:46 10° ESE
CZ-4 R/B 1.8 19:10:06 10° SE 19:14:16 70° SW 19:18:20 10° WNW
Cosmos 2369 4.1 19:09:31 10° NW 19:15:00 44° NNE 19:20:27 10° E
deb Chang Zheng 4 3.9 19:11:03 12° ENE 19:15:08 66° SSE 19:19:30 10° SW
FengYun 1-2 T 4.3 19:09:40 10° SE 19:15:17 85° SW 19:20:55 10° NW
KORONAS-FOTON 4.2 19:12:47 19° N 19:15:19 47° ENE 19:19:12 10° SSE
CZ-4 R/B 4.2 19:12:16 17° N 19:15:50 56° WNW 19:20:33 10° SW
YAOGAN 6 3.2 19:12:23 10° SE 19:15:57 59° SW 19:19:31 10° WNW
FENGYUN 3A 4.3 19:10:49 10° ESE 19:16:18 62° SSW 19:21:44 10° W
Meteor 1-27 4.4 19:10:52 10° SW 19:16:49 77° NW 19:21:21 18° NNE
CSL-04 Rocket 3.7 19:12:06 10° SE 19:17:32 88° SW 19:22:57 10° NW
Cosmos 1726 4.2 19:15:17 10° SSW 19:18:22 23° W 19:21:27 10° NW
Cosmos 2219 Rocket 3.5 19:16:50 18° NE 19:18:55 22° ENE 19:23:11 10° ESE
Cosmos 2278 Rocket 4.0 19:16:01 10° WSW 19:20:11 21° WNW 19:24:19 10° NNW
CZ-2C R/B 3.3 19:15:40 10° ESE 19:20:45 54° S 19:25:42 10° WSW
CSL-04 Debris 4.3 19:15:22 10° SE 19:20:59 87° SW 19:26:33 10° NW
CZ-4B R/B 3.6 19:17:05 18° NE 19:21:06 80° NW 19:26:21 10° SW
SL-14 R/B 4.0 19:19:48 22° NNE 19:21:50 37° E 19:25:33 10° SSE
CZ-2C R/B 3.1 19:17:14 10° SSE 19:22:11 56° ENE 19:26:12 15° N
ADEOS 4.1 19:17:20 10° E 19:22:36 62° SSE 19:27:52 10° WSW
COSMOS 2428 4.0 19:20:32 18° NNE 19:22:43 22° ENE 19:27:05 10° ESE
NPP 3.7 19:18:27 15° NE 19:23:05 85° SE 19:28:37 10° SW
CZ-2D R/B 2.2 19:18:37 15° NE 19:23:09 84° SE 19:28:41 10° SW
Cosmos 1455 2.5 19:20:05 10° SSW 19:23:54 58° WNW 19:26:20 21° N
HJ-1C 3.6 19:20:34 10° SE 19:24:02 77° SW 19:27:28 10° NW
Cosmos 405 3.1 19:20:30 10° NW 19:24:08 80° SW 19:27:47 10° SE
Cosmos 1680 Rocket 3.6 19:19:02 10° WNW 19:24:22 62° N 19:29:42 10° E
Cosmos 923 Rocket 4.1 19:19:09 10° W 19:24:23 61° N 19:29:40 10° ENE
Cosmos 1606 3.4 19:20:55 10° SW 19:24:45 52° SSE 19:28:25 11° ENE
Cosmos 1933 3.9 19:21:04 10° SW 19:25:14 57° SSE 19:29:00 12° ENE
Cosmos 2218 Rocket 4.0 19:21:11 10° NNW 19:27:23 73° ENE 19:33:38 10° SSE
ARIANE 5 R/B 2.8 19:22:19 10° ENE 19:27:25 70° SSE 19:32:34 10° SW
Cosmos 2154 Rocket 4.1 19:22:24 10° NW 19:28:51 87° SW 19:35:22 10° SE
Terra 2.9 19:25:11 10° SSE 19:29:34 32° E 19:32:19 19° NE
Cosmos 2360 Rocket 3.0 19:25:34 12° N 19:30:02 30° NE 19:34:56 10° ESE
SeaSat 1 2.9 19:27:53 17° NE 19:31:23 43° NNW 19:36:10 10° W
SPOT 1/Viking Rocket 4.2 19:26:21 10° SSE 19:31:23 40° E 19:34:45 19° NNE
Meteor 1-29 3.9 19:29:15 19° N 19:31:30 42° WNW 19:34:55 10° SW
IRS-1C 4.3 19:27:20 12° ENE 19:32:25 78° SE 19:37:52 10° SW
Cosmos 2366 rocket 4.0 19:26:10 10° NNW 19:32:27 74° ENE 19:38:43 10° SSE
Cosmos 2098 Rocket 3.9 19:29:29 10° WNW 19:33:49 48° SSW 19:37:19 10° SE
Cosmos 1538 Rocket 4.2 19:28:30 10° W 19:33:53 60° NNW 19:39:15 10° ENE
Cosmos 1626 Rocket 3.8 19:30:52 18° N 19:34:08 56° ENE 19:38:38 10° SSE
Cosmos 1980 Rocket 2.6 19:29:05 10° NW 19:34:27 42° NNE 19:39:48 10° E
SJ-6B 2.8 19:33:33 10° SE 19:37:33 83° NE 19:41:38 10° NW
Meteor 2-10 Rocket 3.9 19:32:48 10° SW 19:38:04 59° WNW 19:42:02 19° N
Cosmos 1300 4.1 19:35:32 10° SSW 19:39:05 32° W 19:42:08 13° NNW
Cosmos 494 Rocket 4.2 19:34:04 10° NW 19:39:11 48° NNE 19:44:16 10° ESE
Cosmos 1825 Rocket 4.2 19:38:35 21° NNE 19:41:10 42° E 19:45:27 10° SSE
Cosmos 1821 Rocket 4.2 19:36:29 17° N 19:41:21 59° E 19:47:36 10° SSE
SPOT 3 Rocket 3.6 19:36:16 10° SE 19:41:38 74° NE 19:46:56 10° NNW
CZ-2D R/B 4.1 19:37:31 10° ENE 19:41:46 58° SSE 19:46:07 10° SW
Okean-O 3.3 19:37:59 10° SE 19:42:28 59° SSW 19:46:57 10° WNW
SL-8 Rocket 4.0 19:36:43 10° NNW 19:43:02 82° ENE 19:49:26 10° SSE
SME Rocket 4.4 19:38:40 15° NE 19:43:42 85° NW 19:52:53 10° SW
Cosmos 1869 3.3 19:39:49 10° SW 19:43:55 85° WNW 19:46:27 22° NNE
ERS-1 Rocket 3.6 19:39:17 10° SSE 19:44:11 42° E 19:47:21 20° NNE
Cosmos 2184 Rocket 4.3 19:38:00 10° NW 19:44:30 74° SW 19:51:00 10° SE
Cosmos 2251 Rocket 4.1 19:40:15 12° NNW 19:44:41 38° NE 19:49:35 10° ESE
Cosmos 540 Rocket 4.2 19:40:22 10° WSW 19:45:10 38° NW 19:48:13 20° N
Cosmos 1943 Rocket 3.1 19:40:40 10° WSW 19:45:38 32° NW 19:48:46 19° N
H-2A R/B 4.0 19:42:43 10° SE 19:46:30 46° SSW 19:50:13 10° W
Cosmos 1842 3.7 19:42:33 10° NW 19:46:32 65° SW 19:50:31 10° SE
Tsikada Rocket 4.1 19:40:07 10° SW 19:46:42 85° SE 19:51:58 17° NE
Meteor 1-21 4.4 19:40:56 10° NW 19:46:53 86° SW 19:52:52 10° SE
SMAP 3.9 19:42:36 10° ESE 19:47:17 57° SSW 19:51:58 10° W
MOS 1 4.3 19:41:33 10° SE 19:47:23 81° NE 19:53:12 10° NW
FREGAT/IRIS 2.9 19:44:34 10° SE 19:47:29 64° SW 19:50:24 10° NW
USA 245 3.8 19:44:31 10° SE 19:48:02 45° ENE 19:50:33 21° N
Spot 2 Rocket 3.8 19:43:03 10° SSE 19:48:12 55° ENE 19:52:03 18° N
Meteor 2-17 Rocket 4.4 19:42:04 10° NNW 19:48:16 83° ENE 19:54:30 10° SE
Cosmos 1939 Rocket 3.3 19:44:06 10° SE 19:48:21 69° SW 19:52:30 10° WNW
ASTRO F (AKARI) 4.4 19:46:37 22° NE 19:48:41 84° SE 19:52:13 10° SW
H-2A R/B 3.4 19:44:52 10° E 19:49:13 54° SSE 19:53:42 10° WSW
CARTOSAT-1 4.3 19:45:04 10° SSE 19:49:15 39° E 19:51:38 22° NNE
MSX 4.3 19:43:50 10° E 19:49:36 64° SSE 19:55:24 10° WSW
SL-16 R/B 2.7 19:44:45 10° NW 19:49:59 38° NNE 19:55:13 10° E
Cosmos 1758 Rocket 4.1 19:47:35 21° NNE 19:50:17 46° E 19:54:42 10° SSE
PSLV R/B 3.9 19:47:48 21° N 19:50:42 60° WNW 19:55:04 10° SSW
CZ-4B R/B 3.7 19:45:28 10° ESE 19:50:49 63° S 19:56:15 10° W
AQUA 3.9 19:47:49 17° NE 19:51:37 86° SE 19:56:32 10° SW
Cosmos 1602 Rocket 3.7 19:51:12 19° N 19:54:19 61° ENE 19:58:48 10° SSE
NOAA 11 4.3 19:49:38 10° SE 19:55:14 82° SW 20:00:50 10° NW
CZ-2D R/B 3.8 19:51:31 10° SE 19:55:30 63° SW 19:59:26 10° WNW
Aureole 2 Rocket 3.0 19:52:08 10° W 19:55:43 42° NNW 19:57:31 24° NE
Cosmos 1626 2.6 19:53:49 24° NNE 19:55:44 45° ENE 19:59:26 10° SSE
Cosmos 2228 Rocket 3.5 19:52:25 10° SW 19:57:05 68° SE 20:01:12 13° ENE
Cosmos 1437 Rocket 3.0 19:54:35 20° N 19:57:10 55° ENE 20:01:14 10° SE
Cosmos 1025 Rocket 3.5 19:53:20 10° WNW 19:57:48 67° SW 20:02:19 10° SE
Okean 2 4.3 19:54:20 10° WNW 19:58:34 55° SSW 20:02:49 10° SE
CBERS-1 4.1 19:54:52 16° NE 19:59:05 90° W 20:04:22 10° SW
Cosmos 2278 4.0 19:53:42 10° WNW 19:59:10 45° N 20:04:39 10° ENE
Cosmos 1536 Rocket 4.1 19:54:38 10° WNW 19:59:10 64° SW 20:03:45 10° SE
Cosmos 158 Rocket 3.9 19:56:00 10° WNW 20:00:55 59° N 20:05:49 10° E
Helios 1A Rocket 4.0 19:57:47 10° ESE 20:01:55 49° S 20:06:01 10° WSW
Cosmos 1315 Rocket 3.6 19:57:59 10° WSW 20:01:59 55° SSE 20:06:00 10° E
Cosmos 1151 Rocket 3.2 19:57:43 10° SW 20:02:15 81° SE 20:05:34 18° NE
SL-08 RB Rocket 3.7 19:57:46 10° SE 20:02:24 77° ENE 20:06:43 12° NNW
Lacrosse 4 Rocket 3.0 20:03:31 18° NE 20:03:31 18° NE 20:06:03 10° ENE
IDEFIX/ARIANE 42P 3.1 19:58:36 10° E 20:03:51 62° SSE 20:09:05 10° WSW
Resurs 1-3 3.6 20:00:30 10° SE 20:05:02 79° ENE 20:09:16 12° NNW
ATLAS 3B R/B 4.4 20:01:01 10° W 20:05:56 19° NW 20:09:35 13° NNW
Cosmos 1862 Rocket 4.5 20:01:51 10° SW 20:06:11 50° SSE 20:10:32 10° E
Cosmos 389 Rocket 2.5 20:04:28 14° NNW 20:07:34 77° NE 20:11:19 10° SE
Envisat 3.6 20:03:05 10° SE 20:08:14 63° SSW 20:13:22 10° WNW
IRS-P3 4.2 20:04:12 16° NE 20:08:41 88° NW 20:14:10 10° SW
Cosmos 1782 3.5 20:04:57 10° SW 20:09:04 57° SSE 20:13:09 10° ENE
Cosmos 1812 3.9 20:05:33 10° SW 20:09:24 45° SSE 20:13:16 10° E
Meteor 1-31 Rocket 4.1 20:05:47 10° E 20:09:31 43° S 20:13:14 10° WSW
Resurs 01 Rocket 1.6 20:05:07 10° SE 20:09:40 75° ENE 20:13:32 14° NNW
Cosmos 1892 Rocket 3.6 20:06:08 10° NW 20:10:36 87° SW 20:15:04 10° SE
Cosmos 1656 3.9 20:06:47 10° WNW 20:12:01 45° N 20:17:19 10° ENE
Cosmos 2221 2.9 20:07:44 10° SSW 20:12:07 56° WNW 20:14:51 22° N
Cosmos 1328 Rocket 3.6 20:08:02 10° SW 20:12:34 88° SE 20:15:42 20° NE
H-2A R/B 2.1 20:07:36 10° SE 20:13:01 85° NE 20:18:14 10° NW
Meteor 1-24 Rocket 3.9 20:09:14 14° NNW 20:14:26 69° ENE 20:20:14 10° SE
Cosmos 2333 Rocket 3.2 20:12:51 20° N 20:15:29 28° NE 20:20:21 10° ESE
ADEOS II 2.2 20:10:59 12° NE 20:15:57 83° SE 20:21:22 10° SW
Okean 1-7 Rocket 3.8 20:12:03 10° NW 20:16:46 83° SW 20:21:29 10° SE
Cosmos 1092 Rocket 4.5 20:11:11 10° SW 20:17:35 64° SSE 20:23:55 10° ENE
Helios 1B rocket 4.0 20:14:31 13° NNW 20:17:37 29° W 20:21:21 10° SSW
USA 186 2.0 20:15:44 10° SE 20:18:08 49° SW 20:20:37 10° WNW
Cosmos 1269 Rocket 4.1 20:13:20 10° NW 20:18:34 54° NNE 20:23:48 10° E
MetOp-B 4.2 20:13:23 10° SE 20:18:51 64° ENE 20:23:05 17° NNW
PSLV R/B 4.2 20:14:58 10° ENE 20:19:12 55° SSE 20:23:25 10° SW
Meteor 1-26 Rocket 4.4 20:14:16 10° SW 20:20:15 84° SE 20:25:50 11° NE
Okean O Rocket 2.6 20:16:34 10° ESE 20:20:54 50° S 20:25:13 10° WSW
Cosmos 1400 Rocket 3.3 20:16:39 10° SW 20:20:55 67° SSE 20:25:09 10° ENE
ARGOS 3.2 20:16:12 10° SE 20:21:45 85° NE 20:27:15 10° NW
CZ-2C R/B 3.2 20:18:10 10° ENE 20:21:52 60° SE 20:25:40 10° SW
IGS 5A 3.7 20:18:15 10° SSE 20:22:27 54° ENE 20:24:54 23° N
Okean 1-7 4.2 20:20:27 10° WSW 20:24:42 46° SSE 20:28:59 10° E
Spot 4 Rocket 4.1 20:19:50 12° NE 20:24:44 84° SE 20:30:01 10° SW
In-Cosmos 22 4.3 20:18:54 10° NW 20:24:48 85° NE 20:30:42 10° SE
Cosmos 1356 Rocket 3.6 20:20:36 10° SW 20:24:58 71° WNW 20:27:44 22° NNE
Cosmos 2237 Rocket 3.5 20:23:42 19° NNE 20:25:52 24° ENE 20:30:16 10° ESE
Cosmos-2242 4.4 20:23:26 10° SSW 20:27:17 31° W 20:30:23 14° NW
Meteor 1-4 Rocket 2.5 20:25:15 16° NW 20:28:10 84° NE 20:31:55 10° SE
Meteor 2-4 Rocket 4.4 20:22:31 10° W 20:28:32 62° S 20:34:27 10° ESE
Resurs 1-4 Rocket 2.2 20:24:46 20° NNE 20:28:40 73° WNW 20:34:07 10° SW
Cosmos 1340 Rocket 3.8 20:25:26 10° SW 20:29:22 39° WNW 20:31:41 21° NNW
CZ-4B R/B 3.9 20:26:47 10° E 20:30:32 46° SSE 20:34:10 10° WSW
MOS 1-B Rocket 4.5 20:26:12 18° NNE 20:31:26 73° WNW 20:39:19 10° SW
Cosmos 1674 2.7 20:28:26 16° NW 20:31:30 89° NE 20:35:28 10° SE
ARGOS Delta rocket 4.3 20:27:27 10° SSE 20:32:25 56° ENE 20:35:50 21° N
Meteor 2-5 Rocket 3.8 20:26:32 10° NNW 20:32:29 81° NE 20:38:22 10° SE
Cosmos 1048 Rocket 4.1 20:27:37 10° WNW 20:33:00 60° NNE 20:38:19 10° E
YAOGAN 1 3.4 20:28:45 10° SE 20:33:06 56° SSW 20:37:27 10° W
SPOT 5 3.0 20:28:57 10° SSE 20:33:31 51° ENE 20:36:06 23° N
Cosmos 1378 4.2 20:30:29 10° WNW 20:34:13 49° SSW 20:37:58 10° SE
IRS-1D 3.5 20:30:36 18° NNE 20:34:28 80° NW 20:39:34 10° SW
Cosmos 407 Rocket 4.3 20:31:52 21° N 20:34:37 35° NE 20:39:29 10° ESE
ALOS 3.3 20:30:29 10° ESE 20:35:05 50° S 20:39:42 10° WSW
Cosmos 1271 Rocket 3.7 20:33:52 23° NNE 20:35:50 36° ENE 20:39:39 10° SE
Cosmos 1707 Rocket 4.0 20:31:58 10° SW 20:36:30 64° SE 20:41:03 10° ENE
Landsat 7 4.0 20:31:46 10° SSE 20:36:38 61° ENE 20:39:51 21° N
Cosmos 1484 Rocket 4.2 20:33:26 10° E 20:37:11 42° S 20:41:01 10° WSW
Cosmos 2112 Rocket 4.1 20:32:34 10° W 20:37:53 59° NNW 20:43:14 10° ENE
Nadezhda 4 Rocket 4.3 20:31:59 10° SW 20:38:28 74° SE 20:44:54 10° NE
Cosmos 1515 Rocket 3.6 20:34:12 10° SW 20:38:42 89° WNW 20:41:50 20° NE
Cosmos 2369 Rocket 3.4 20:36:30 10° WSW 20:41:11 27° NW 20:43:49 19° NNW
Cosmos 1697 Rocket 3.0 20:35:55 10° WNW 20:41:18 45° N 20:46:41 10° ENE
Cosmos 1707 3.3 20:38:03 10° WNW 20:42:02 61° SW 20:46:00 10° SE
Cosmos 2322 Rocket 2.6 20:36:58 10° NW 20:42:21 42° NNE 20:47:45 10° E
COSMOS 2455 4.0 20:40:54 20° NNE 20:42:52 24° NE 20:47:33 10° E
Cosmos 773 Rocket 4.3 20:38:55 10° WSW 20:44:06 49° NNW 20:48:11 16° NE
MetOp-A 4.2 20:38:56 10° SE 20:44:27 85° NE 20:49:51 10° NW
Spot 2 4.3 20:40:29 10° ENE 20:44:43 74° SE 20:49:11 10° SW
Cosmos 1934 Rocket 4.1 20:41:23 18° NNW 20:46:19 73° ENE 20:52:47 10° SSE
Cosmos 1975 Rocket 4.2 20:43:04 10° W 20:47:22 46° SSW 20:51:40 10° ESE
Mayak 1.1 20:44:32 10° WNW 20:47:38 19° WSW 20:50:44 10° SSW
Meteor 2-12 Rocket 4.5 20:43:12 17° NNW 20:48:14 77° ENE 20:54:30 10° SSE
Radarsat Rocket 4.2 20:42:40 10° E 20:48:35 76° S 20:54:39 10° W
CZ-4 R/B 2.5 20:45:03 10° ESE 20:49:05 48° SSW 20:53:02 10° W
Cosmos 1242 Rocket 3.9 20:47:28 20° NE 20:49:09 29° E 20:52:27 10° SE
YAOGAN 6 4.1 20:45:48 10° SE 20:49:11 39° SSW 20:52:35 10° W
CENTAUR R/B 4.4 20:47:33 10° WNW 20:49:13 11° WNW 20:50:50 10° NW
Meteor 2-6 Rocket 4.3 20:44:01 10° SW 20:49:33 78° SE 20:55:05 10° NE
Ariane Rocket 3.4 20:45:22 10° SE 20:50:32 70° SSW 20:55:41 10° WNW
ALOS 2 4.0 20:46:48 10° SSE 20:50:45 29° E 20:53:33 16° NE
KORONAS-FOTON 3.9 20:47:51 16° NW 20:51:02 85° SW 20:55:05 10° SE
deb Chang Zheng 4 3.6 20:48:10 20° NNE 20:51:13 77° NW 20:55:37 10° SW
Cosmos 2341 Rocket 4.3 20:46:51 10° NW 20:53:14 71° SW 20:59:42 10° SE
Aureole 1 Rocket 3.6 20:52:11 22° NNW 20:54:32 41° NE 20:59:29 10° ESE
Meteor 1-27 Rocket 4.1 20:49:50 10° SW 20:55:42 74° SSE 21:01:40 10° ENE
SL-16 R/B 3.7 20:53:44 16° NNE 20:56:13 21° ENE 21:00:26 10° ESE
FENGYUN 3A 4.4 20:50:54 10° E 20:56:20 59° S 21:01:46 10° WSW
SL-14 R/B 3.2 20:55:14 22° NNW 20:57:45 80° ENE 21:01:47 10° SE
CSL-04 Rocket 4.1 20:52:30 10° ESE 20:57:51 66° SSW 21:03:11 10° W
Cosmos 2369 4.0 20:53:01 10° W 20:58:30 44° N 21:03:58 10° ENE
CZ-2C R/B 3.1 20:53:32 10° ENE 20:58:42 63° SSE 21:03:45 10° SW
CZ-4B DEB 4.4 20:55:21 10° SE 20:58:53 86° NE 21:01:02 22° NNW
CBERS 1 LM4 rocket 4.5 20:54:04 10° NE 20:59:03 83° SE 21:03:55 10° SW
Cosmos 1455 3.7 20:55:47 10° SSW 20:59:04 27° W 21:01:16 16° NW
Cosmos 405 4.0 20:55:36 10° W 20:59:10 51° SSW 21:02:44 10° ESE
Cosmos 1703 3.8 20:57:43 25° NNE 20:59:45 47° ENE 21:03:38 10° SSE
CZ-4B R/B 4.1 20:57:01 21° N 21:00:21 46° WNW 21:05:24 10° SSW
Cosmos 1606 2.7 20:56:53 10° SW 21:00:48 90° NNE 21:03:26 20° NE
Cosmos 2219 Rocket 2.9 20:58:31 20° N 21:01:38 34° NE 21:06:45 10° E
Cosmos 1140 Rocket 4.3 20:59:02 22° N 21:01:39 35° NE 21:06:24 10° ESE
Cosmos 1953 Rocket 3.6 20:59:03 23° N 21:01:45 66° ENE 21:06:10 10° SSE
ADEOS 3.7 20:56:42 10° ENE 21:02:02 81° SE 21:07:24 10° SW
Cosmos 1933 3.3 20:57:50 10° SW 21:02:03 83° WNW 21:04:50 20° NNE
Cosmos 2278 Rocket 4.5 21:00:45 10° WSW 21:02:21 11° W 21:03:57 10° WNW
CZ-2C R/B 3.0 20:57:23 10° SE 21:02:27 84° SW 21:07:16 10° NW
CZ-2D R/B 2.3 20:59:56 21° N 21:03:34 60° WNW 21:09:01 10° SSW
NPP 3.9 20:59:57 21° N 21:03:40 60° WNW 21:09:08 10° SW
Meteor 1-10 Rocket 4.3 20:58:21 10° SW 21:04:03 81° SE 21:09:48 10° NE
COSMOS 2428 3.4 21:02:29 20° NNW 21:05:44 35° NE 21:10:56 10° E
Cosmos 1680 Rocket 3.7 21:00:54 10° W 21:06:10 55° NNW 21:11:27 10° NE
Cosmos 923 Rocket 4.2 21:01:03 10° W 21:06:13 53° NNW 21:11:24 10° NE
ARIANE 5 R/B 2.5 21:02:34 16° NNE 21:06:39 78° NW 21:11:51 10° SW
Cosmos 2322 4.2 21:03:23 16° NNW 21:07:26 38° NNE 21:12:40 10° E
Terra 2.0 21:03:17 10° SSE 21:08:08 61° ENE 21:11:12 22° N
SeaSat 1 3.4 21:07:39 22° N 21:09:54 31° NW 21:14:20 10° WSW
SPOT 1/Viking Rocket 3.6 21:06:09 10° SE 21:11:29 72° ENE 21:15:24 19° NNW
Cosmos 1626 Rocket 3.7 21:07:58 13° NW 21:11:58 79° SW 21:16:34 10° SE
SJ-6B 3.5 21:08:18 10° SE 21:12:12 57° SSW 21:16:10 10° WNW
IRS-1C 4.2 21:08:36 18° NNE 21:12:39 68° WNW 21:18:07 10° SW
Cosmos 2360 Rocket 2.6 21:07:44 10° NW 21:13:05 41° NNE 21:18:25 10° E
Cosmos 2218 Rocket 4.2 21:06:51 10° NW 21:13:06 73° SW 21:19:24 10° SE
Cosmos 1076 Rocket 4.4 21:12:42 20° NNE 21:15:17 41° E 21:19:28 10° SSE
Cosmos 1538 Rocket 4.4 21:10:25 10° WSW 21:15:37 46° NW 21:19:49 15° NNE
Cosmos 2098 Rocket 4.4 21:11:44 10° WSW 21:15:42 37° S 21:18:58 10° ESE
CZ-2D R/B 3.5 21:13:51 15° NE 21:17:21 87° NW 21:21:48 10° SW
Cosmos 2026 Rocket 4.2 21:11:32 10° SW 21:17:43 72° SE 21:23:53 10° NE
Cosmos 1980 Rocket 2.5 21:12:20 10° WNW 21:17:46 45° N 21:23:10 10° ENE
Cosmos 2366 rocket 4.2 21:11:46 10° NW 21:18:04 73° SW 21:24:22 10° SE
ATLAS 2AS CENTAUR R/B 4.0 21:16:35 15° NNE 21:18:05 16° NE 21:21:44 10° E
FREGAT/IRIS 4.2 21:15:22 10° SE 21:18:05 34° SSW 21:20:48 10° W
Okean-O 3.7 21:14:16 10° ESE 21:18:40 51° S 21:23:05 10° WSW
Cosmos 1825 Rocket 3.6 21:15:41 20° NNW 21:18:45 82° ENE 21:23:20 10° SE
Cosmos 1869 4.1 21:16:09 10° SSW 21:19:59 41° W 21:22:00 23° NNW
H-2A R/B 4.3 21:16:37 10° ESE 21:20:19 39° S 21:23:58 10° WSW
Cosmos 494 Rocket 4.0 21:15:21 10° WNW 21:20:36 60° N 21:25:50 10° E
Cosmos 2058 4.0 21:18:11 19° NNE 21:20:44 37° E 21:24:44 10° SSE
SPOT 3 Rocket 3.8 21:15:51 10° SE 21:21:11 74° SSW 21:26:29 10° WNW
PAYLOAD A 4.4 21:16:18 10° ENE 21:21:26 71° SSE 21:26:48 10° SW
Helios 1A 3.8 21:18:27 10° SSE 21:22:28 39° ENE 21:24:52 21° NNE
Cosmos 1939 Rocket 4.1 21:18:57 10° SE 21:23:03 47° SSW 21:27:05 10° W
ERS-1 Rocket 3.0 21:18:26 10° SE 21:23:37 76° NE 21:27:22 19° NNW
Cosmos 1605 Rocket 4.0 21:19:12 19° NNW 21:23:47 77° ENE 21:30:00 10° SSE
SMAP 4.1 21:19:42 10° E 21:24:20 52° S 21:28:58 10° WSW
H-2A R/B 2.8 21:20:07 10° ENE 21:24:32 75° SE 21:29:07 10° SW
USA 245 3.3 21:21:14 10° SE 21:24:46 90° SW 21:28:00 18° NW
CARTOSAT-1 3.6 21:21:25 10° SE 21:25:52 76° ENE 21:28:45 22° NNW
Cosmos 2251 Rocket 3.7 21:21:12 10° NW 21:26:24 55° NNE 21:31:36 10° E
Cosmos 1821 Rocket 4.1 21:21:06 14° NW 21:26:40 86° SW 21:33:07 10° SE
Spot 2 Rocket 3.6 21:22:19 10° SE 21:27:35 89° SW 21:32:15 13° NW
Cosmos 1758 Rocket 3.6 21:24:43 19° NNW 21:27:59 88° ENE 21:32:38 10° SE
Cosmos 1943 Rocket 3.7 21:24:04 10° WSW 21:28:05 20° WNW 21:30:16 16° NW
SL-8 Rocket 4.4 21:22:27 10° WNW 21:28:46 67° SW 21:35:09 10° SE
Aureole 2 Rocket 3.5 21:26:08 10° WSW 21:29:22 28° NW 21:30:04 26° NNW
AQUA 4.1 21:26:40 22° N 21:29:43 55° WNW 21:34:32 10° SSW
Cosmos 1626 2.2 21:28:22 21° NW 21:30:54 85° SW 21:34:46 10° SE
CZ-4B R/B 3.6 21:25:50 10° E 21:31:12 67° SSE 21:36:39 10° WSW
MSX 4.0 21:25:24 10° ENE 21:31:14 81° SE 21:37:07 10° SW
Cosmos 1535 Rocket 4.5 21:26:46 17° NNW 21:31:47 89° ENE 21:38:03 10° SE
Cosmos 1703 Rocket 4.3 21:27:24 10° SW 21:31:56 59° SSE 21:36:28 10° ENE
Tsikada Rocket 4.3 21:25:49 10° SSW 21:32:13 60° WNW 21:36:48 20° N
Cosmos 1602 Rocket 3.8 21:28:19 14° NW 21:32:14 74° SW 21:36:48 10° SE
Cosmos 1655 Rocket 4.5 21:26:04 10° SW 21:32:30 67° SE 21:38:52 10° ENE
Cosmos 1825 4.2 21:30:14 10° NE 21:33:15 22° E 21:36:16 10° SSE
SL-16 R/B 2.5 21:27:53 10° WNW 21:33:20 45° N 21:38:46 10° ENE
Cosmos 1437 Rocket 2.9 21:29:57 14° NW 21:33:25 80° SW 21:37:36 10° SE
Cosmos 2242 Rocket 4.1 21:29:25 10° SW 21:34:03 67° SE 21:38:42 10° ENE
Cosmos 2228 Rocket 3.2 21:30:48 10° SSW 21:35:27 70° WNW 21:38:41 20° NNE
Cosmos 1025 Rocket 4.2 21:31:37 10° W 21:35:58 48° SSW 21:40:22 10° ESE
Helios 1A Rocket 3.7 21:32:37 10° ENE 21:36:49 57° SSE 21:41:00 10° SW
Cosmos 1408 4.5 21:35:40 12° NE 21:38:22 24° E 21:41:29 10° SSE
Spot 4 4.3 21:33:39 10° SSE 21:38:26 51° ENE 21:41:32 21° N
Cosmos 2100 Rocket 4.2 21:34:07 20° N 21:38:34 65° ENE 21:44:45 10° SSE
CBERS-1 4.3 21:35:14 21° N 21:38:39 54° WNW 21:43:49 10° SSW
Cosmos 1315 Rocket 2.9 21:34:50 10° SW 21:38:54 81° SE 21:43:00 10° NE
SL-08 RB Rocket 4.1 21:34:57 10° SE 21:39:31 65° SSW 21:44:06 10° WNW
Cosmos 1151 Rocket 3.4 21:35:23 10° SSW 21:39:47 54° WNW 21:42:24 23° N
Cosmos 2151 4.2 21:36:53 16° NNE 21:39:49 36° E 21:43:52 10° SSE
Lacrosse 4 Rocket 2.6 21:39:47 23° N 21:40:31 24° N 21:44:09 10° ENE
Resurs 1-3 4.1 21:36:57 10° SE 21:41:25 64° SSW 21:45:52 10° WNW
Cosmos 158 Rocket 4.0 21:37:20 10° W 21:42:11 52° NNW 21:47:00 10° NE
Cosmos 1892 4.1 21:40:02 16° NNE 21:42:28 31° E 21:45:56 10° SSE
Cosmos 389 Rocket 3.1 21:38:49 10° WNW 21:42:30 61° SSW 21:46:13 10° SE
Cosmos 2278 4.1 21:37:14 10° W 21:42:39 43° NNW 21:48:03 10° NE
Meteor 1-21 Rocket 4.3 21:38:37 18° NNW 21:43:02 79° NE 21:48:47 10° SE
IDEFIX/ARIANE 42P 2.6 21:38:03 10° NE 21:43:24 86° SE 21:48:44 10° SW
Meteor 1-31 Rocket 3.4 21:39:48 10° ENE 21:43:39 59° SE 21:47:32 10° SW
Cosmos 1190 Rocket 4.4 21:40:47 20° NNW 21:44:06 45° NE 21:49:06 10° ESE
Cosmos 1862 Rocket 3.8 21:40:04 10° SW 21:44:32 75° SE 21:49:00 10° NE
Cosmos 1782 2.8 21:41:29 10° SW 21:45:39 82° WNW 21:48:57 16° NNE
Cosmos 1812 3.1 21:41:42 10° SW 21:45:42 69° SE 21:49:40 10° NE
Resurs 01 Rocket 2.0 21:41:44 10° SE 21:46:14 67° SW 21:50:43 10° WNW
Envisat 3.9 21:41:55 10° ESE 21:46:59 55° S 21:52:03 10° WSW
USA 186 3.3 21:46:42 10° SE 21:48:50 27° SSW 21:51:03 10° W
Cosmos 1892 Rocket 4.3 21:44:28 10° WNW 21:48:51 54° SSW 21:53:15 10° SE
Cosmos 2221 4.0 21:45:19 10° SSW 21:49:07 28° W 21:51:43 16° NW
IRS-P3 4.4 21:45:28 20° N 21:49:10 53° WNW 21:54:31 10° SSW
Cosmos 1328 Rocket 4.0 21:45:53 10° SSW 21:50:14 48° WNW 21:52:45 23° NNW
Meteor PRIRODA 4.5 21:48:14 10° ENE 21:52:01 56° SSE 21:55:48 10° SW
H-2A R/B 2.5 21:47:07 10° SE 21:52:28 66° SSW 21:57:39 10° WNW
Cosmos 1656 4.1 21:49:52 10° W 21:54:56 37° NNW 22:00:02 10° NE
PSLV R/B 3.6 21:50:46 10° NE 21:55:06 86° SE 21:59:26 10° SW
Cosmos 1725 Rocket 4.4 21:50:25 18° N 21:55:16 59° E 22:01:34 10° SSE
Okean 1-7 Rocket 4.4 21:50:45 10° WNW 21:55:21 54° SSW 21:59:58 10° SE
ADEOS II 2.2 21:51:55 17° NNE 21:55:59 61° WNW 22:01:20 10° SSW
CZ-2C R/B 2.6 21:53:35 18° NNE 21:56:22 74° WNW 22:00:13 10° SW
Okean O Rocket 2.3 21:52:34 10° ENE 21:56:59 59° SSE 22:01:23 10° SW
Cosmos 1328 3.8 21:54:43 23° NNW 21:57:09 78° ENE 22:01:14 10° SE
Cosmos 1400 Rocket 2.9 21:53:18 10° SW 21:57:34 74° NW 22:01:16 13° NNE
Meteor 1-24 Rocket 4.0 21:51:39 10° NW 21:57:40 79° SW 22:03:30 10° SE
SL-16 R/B 4.5 21:52:44 10° SSE 21:57:43 24° ESE 22:02:41 10° ENE
IGS 5A 3.6 21:53:54 10° SE 21:58:10 80° SW 22:01:21 17° NW
Cosmos 2333 Rocket 2.8 21:54:48 17° NW 21:58:45 40° NNE 22:04:07 10° E
MetOp-B 4.3 21:53:45 10° SE 21:59:14 81° SW 22:04:27 11° NW
Cosmos 1269 Rocket 4.1 21:55:10 10° W 22:00:29 62° N 22:05:48 10° ENE
CZ-4B DEB 4.5 21:55:01 10° ENE 22:00:33 76° SSE 22:06:08 10° SW
Cosmos 1356 Rocket 4.4 21:57:38 10° SW 22:01:40 36° W 22:03:53 22° NNW
ARGOS 3.5 21:56:35 10° SE 22:02:03 68° SSW 22:07:29 10° WNW
Okean 1-7 3.5 21:58:28 10° SW 22:02:51 64° SE 22:07:16 10° ENE
Cosmos 1092 Rocket 4.1 21:56:58 10° SW 22:03:26 89° WNW 22:09:49 10° NNE
Meteor 1-4 Rocket 3.2 21:59:49 10° WNW 22:03:28 58° SSW 22:07:10 10° SE
Meteor 1-26 Rocket 4.4 21:57:42 10° SW 22:03:33 62° WNW 22:08:11 16° N
Spot 4 Rocket 4.2 22:00:19 17° N 22:04:19 59° WNW 22:09:33 10° SW
CZ-4B R/B 3.1 22:01:33 10° ENE 22:05:29 69° SE 22:09:15 10° SW
Cosmos 2173 Rocket 4.1 22:01:08 19° NNW 22:05:43 73° ENE 22:11:55 10° SSE
Cosmos 1674 3.5 22:03:29 10° WNW 22:07:20 53° SSW 22:11:14 10° SE
Cosmos 2237 Rocket 2.9 22:05:30 20° NNW 22:08:46 36° NE 22:13:54 10° E
YAOGAN 1 3.7 22:04:37 10° ESE 22:08:54 48° S 22:13:10 10° WSW
Resurs 1-4 Rocket 2.8 22:05:50 20° NNW 22:09:12 41° W 22:14:22 10° SSW
Okean 1 4.1 22:05:06 10° SW 22:09:13 57° SSE 22:13:19 10° ENE
Cosmos 1484 Rocket 3.6 22:07:25 10° ENE 22:11:18 56° SSE 22:15:15 10° SW
ARGOS Delta rocket 4.1 22:06:22 10° SSE 22:11:24 83° SW 22:15:26 18° NW
Meteor 1-11 4.4 22:07:14 19° NNW 22:11:30 71° ENE 22:17:25 10° SE
Cosmos 1271 Rocket 2.9 22:09:01 23° NNW 22:11:32 74° NE 22:15:41 10° SE
SPOT 5 2.7 22:07:16 10° SE 22:11:59 88° SW 22:15:21 18° NW
Meteor 2-4 Rocket 4.3 22:06:09 10° WSW 22:12:12 69° SSE 22:18:07 10° ENE
ALOS 3.0 22:07:31 10° ENE 22:12:13 59° SSE 22:16:55 10° SW
Cosmos 614 Rocket 4.2 22:10:23 18° NW 22:13:57 50° NNE 22:18:55 10° ESE
IRS-1D 4.0 22:11:05 20° NNW 22:14:17 45° WNW 22:19:11 10° SSW
Cosmos 1707 Rocket 3.6 22:10:01 10° SW 22:14:34 75° WNW 22:18:43 13° NNE
Landsat 7 4.0 22:09:45 10° SE 22:14:39 79° SW 22:18:44 15° NW
Cosmos 1048 Rocket 4.1 22:09:24 10° W 22:14:46 59° NNW 22:20:05 10° ENE
MOS 1-B 4.5 22:09:42 10° ENE 22:15:38 85° SE 22:21:35 10° SW
Cosmos 407 Rocket 3.8 22:12:03 17° NW 22:15:58 52° NNE 22:21:13 10° ESE
Meteor 2-5 Rocket 4.1 22:10:12 10° WNW 22:16:11 71° SSW 22:22:02 10° ESE
Cosmos 1515 Rocket 4.1 22:12:07 10° SSW 22:16:24 45° W 22:18:58 22° NNW
Cosmos 1980 4.4 22:14:18 19° NNW 22:17:45 37° NNE 22:23:00 10° E
Cosmos 1707 4.0 22:14:36 10° W 22:18:27 43° SSW 22:22:16 10° ESE
Cosmos 1459 Rocket 4.1 22:14:09 19° NNW 22:18:59 78° ENE 22:25:30 10° SSE
Cosmos 2112 Rocket 4.4 22:14:27 10° WSW 22:19:36 45° NW 22:24:46 10° NNE
Cosmos 1802 Rocket 4.2 22:16:54 18° NNW 22:21:50 75° ENE 22:28:14 10° SSE
Spot 2 4.1 22:18:19 13° NNE 22:22:01 65° WNW 22:26:26 10° SW
YAOGAN 6 4.3 22:18:56 10° ESE 22:22:16 36° S 22:25:37 10° WSW
USA 81 4.5 22:17:13 10° SSW 22:22:36 67° SE 22:27:58 10° NE
Cosmos 1263 4.1 22:19:33 10° SW 22:22:55 78° WNW 22:25:11 17° NNE
Cosmos 2369 Rocket 3.9 22:20:23 10° WSW 22:23:37 16° WNW 22:25:36 13° NW
Cosmos 1242 Rocket 2.8 22:21:30 24° NNW 22:23:39 63° ENE 22:27:23 10° SE
CZ-4 R/B 2.7 22:19:44 10° E 22:23:46 45° S 22:27:42 10° WSW
Nadezhda 4 Rocket 4.1 22:17:32 10° SSW 22:23:59 74° WNW 22:30:19 10° NNE
Cosmos 2266 Rocket 4.4 22:17:53 10° SW 22:24:26 73° SE 22:30:56 10° NE
Cosmos 1697 Rocket 3.2 22:19:19 10° W 22:24:31 37° NNW 22:29:41 10° NE
Mayak 1.7 22:24:29 10° SW 22:24:57 10° SW 22:25:25 10° SW
Cosmos 2322 Rocket 2.5 22:20:16 10° WNW 22:25:43 45° N 22:31:12 10° ENE
Cosmos 1975 Rocket 4.3 22:21:39 10° WSW 22:25:57 46° SSE 22:30:15 10° E
Cosmos 1627 Rocket 4.5 22:20:02 10° SW 22:26:18 86° WNW 22:32:33 10° NNE
COSMOS 2455 3.7 22:23:59 18° NW 22:27:27 31° NNE 22:32:39 10° ENE
deb Chang Zheng 4 4.2 22:25:17 21° NNW 22:27:45 40° WNW 22:31:55 10° SSW
PAYLOAD B 4.4 22:22:08 10° ENE 22:27:46 82° SE 22:33:24 10° SW
ALOS 2 3.0 22:23:25 10° SSE 22:27:53 56° ENE 22:30:57 19° N
Ariane Rocket 3.7 22:24:13 10° ESE 22:29:18 59° S 22:34:24 10° W
Cosmos 2061 Rocket 4.1 22:26:04 18° NNW 22:30:53 76° ENE 22:37:11 10° SSE
CZ-4B R/B 4.2 22:27:09 10° NE 22:31:25 80° SE 22:35:53 10° SW
Cosmos 1934 Rocket 4.3 22:25:53 13° NW 22:31:47 74° SW 22:38:16 10° SE
Meteor 2-6 Rocket 4.2 22:27:19 10° SW 22:32:46 67° WNW 22:38:14 10° NNE
SL-14 R/B 3.8 22:30:39 13° WNW 22:34:10 57° SSW 22:38:08 10° SE
Cosmos 405 4.2 22:30:50 10° WSW 22:34:21 47° S 22:37:55 10° E
Cosmos 1703 3.3 22:33:04 21° NW 22:35:45 85° SW 22:39:47 10° SE
Cosmos 1606 3.2 22:32:40 10° SSW 22:36:22 42° WNW 22:38:28 22° NNW
FENGYUN 3A 4.0 22:30:56 10° ENE 22:36:27 72° SSE 22:41:59 10° SW
Cosmos 2233 Rocket 4.4 22:31:25 16° N 22:36:40 64° ENE 22:43:02 10° SSE
Iridium 4 Rocket 4.4 22:30:44 10° SSW 22:36:45 64° ESE 22:42:39 10° NE
Radarsat Rocket 4.0 22:30:46 10° ENE 22:36:45 88° SSE 22:42:47 10° WSW
CZ-2C R/B 2.6 22:31:38 10° NE 22:36:54 90° SE 22:42:04 10° SW
Cosmos 1954 Rocket 4.4 22:33:45 19° NW 22:37:23 49° NNE 22:42:31 10° ESE
CSL-04 Rocket 4.2 22:32:40 10° E 22:37:58 62° S 22:43:18 10° WSW
Cosmos 1933 4.0 22:34:26 10° SSW 22:38:23 40° W 22:40:40 21° NNW
CBERS 1 LM4 rocket 4.5 22:33:52 12° NNE 22:38:29 59° WNW 22:43:18 10° SW
Aureole 1 Rocket 3.4 22:34:48 13° WNW 22:38:31 56° N 22:43:59 10° E
SL-16 R/B 3.1 22:35:35 18° NNW 22:39:03 34° NE 22:44:09 10° E
Meteor 1-27 Rocket 3.8 22:33:25 10° SW 22:39:16 77° NW 22:45:14 10° NNE
NOAA 6 4.3 22:34:25 10° ENE 22:39:41 75° SSE 22:44:56 10° SW
Cosmos 1953 Rocket 3.8 22:36:12 16° NW 22:39:44 69° SW 22:44:12 10° SE
ADEOS 3.6 22:36:32 10° NNE 22:41:50 65° WNW 22:47:10 10° SW
Cosmos 2016 Rocket 4.2 22:36:50 18° NNW 22:41:52 79° ENE 22:48:23 10° SSE
Cosmos 2369 4.3 22:36:40 10° W 22:41:53 35° NW 22:47:04 10° NNE
CZ-2C R/B 3.5 22:37:17 10° ESE 22:42:16 59° SSW 22:47:04 10° W
Cosmos 1140 Rocket 3.8 22:39:01 17° NW 22:42:49 52° NNE 22:47:56 10° ESE
IRIDIUM 104 4.4 22:38:37 10° SSW 22:44:00 90° W 22:49:20 10° NNE
CZ-2D R/B 3.1 22:41:15 18° NW 22:44:35 34° W 22:49:33 10° SSW
Cosmos 2219 Rocket 2.6 22:40:11 14° NW 22:44:45 44° NNE 22:50:10 10° E
ERS-2 3.6 22:42:36 10° SE 22:46:03 31° E 22:49:07 12° NNE
Terra 1.9 22:41:16 10° SE 22:46:09 80° SW 22:50:06 16° NW
ARIANE 5 R/B 3.0 22:42:54 18° NNW 22:46:22 43° WNW 22:51:19 10° SSW
SJ-6B 4.0 22:42:48 10° ESE 22:46:34 43° S 22:50:24 10° W
SJ-6F 4.5 22:43:10 10° NE 22:47:25 87° NW 22:51:41 10° SW
Meteor 1-10 Rocket 4.3 22:41:54 10° SW 22:47:31 64° WNW 22:53:09 10° NNE
Cosmos 1680 Rocket 4.0 22:42:45 10° WSW 22:47:44 39° NW 22:52:43 10° NNE
SeaSat 1 3.9 22:47:25 17° NW 22:48:48 19° WNW 22:52:19 10° WSW
COSMOS 2428 3.1 22:44:27 14° NW 22:49:10 44° NNE 22:54:39 10° E
Cosmos 1626 Rocket 4.4 22:45:48 10° W 22:50:15 52° SSW 22:54:45 10° SE
Okean 3 Rocket 3.9 22:47:18 19° NNW 22:50:35 67° ENE 22:55:09 10° SSE
Cosmos 2322 4.1 22:45:27 10° WNW 22:50:52 45° N 22:56:18 10° ENE
SPOT 1/Viking Rocket 3.8 22:45:46 10° SE 22:51:05 74° SSW 22:56:02 12° WNW
Cosmos 1076 Rocket 3.6 22:49:28 20° NNW 22:52:33 82° ENE 22:57:00 10° SE
IRIDIUM 114 4.4 22:47:48 10° SSW 22:53:10 85° WNW 22:58:31 10° N
METEOR-M 4.4 22:47:46 10° ENE 22:53:13 77° SE 22:58:41 10° SW
CZ-2D R/B 4.0 22:50:31 18° N 22:53:24 45° WNW 22:57:40 10° SSW
Cosmos 1766 Rocket 3.9 22:50:18 18° N 22:53:31 62° ENE 22:57:57 10° SSE
H-2A R/B 4.0 22:50:21 10° E 22:54:08 47° SSE 22:57:54 10° SW
Okean-O 3.4 22:50:24 10° E 22:54:52 58° SSE 22:59:21 10° SW
IRS-1C Rocket 4.4 22:50:14 10° ENE 22:55:36 74° SSE 23:01:00 10° SW
Cosmos 2360 Rocket 2.5 22:50:58 10° WNW 22:56:24 45° N 23:01:49 10° ENE
Cosmos 1825 Rocket 4.1 22:52:47 12° WNW 22:56:52 60° SSW 23:01:24 10° SE
Cosmos 2058 3.1 22:54:22 20° NNW 22:57:21 76° ENE 23:01:41 10° SE
Cosmos 1939 Rocket 4.3 22:53:32 10° ESE 22:57:35 43° S 23:01:35 10° WSW
Cosmos 2098 Rocket 4.0 22:53:46 10° SW 22:57:37 42° SSE 23:00:51 10° E
Helios 1A 3.0 22:54:15 10° SE 22:58:31 78° NE 23:01:29 19° NNW
Cosmos 1238 Rocket 4.2 22:53:24 13° N 22:59:03 61° ENE 23:04:31 10° SSE
Cosmos 1378 Rocket 4.3 22:55:26 10° SW 22:59:48 57° SSE 23:04:11 10° ENE
H-2A R/B 2.6 22:55:50 10° NNE 23:00:13 64° WNW 23:04:46 10° SW
SPOT 3 Rocket 4.2 22:55:11 10° ESE 23:00:26 61° S 23:05:40 10° W
PAYLOAD A 4.0 22:55:22 10° NNE 23:00:30 76° WNW 23:05:54 10° SW
Cosmos 1980 Rocket 2.7 22:55:47 10° W 23:01:00 37° NNW 23:06:11 10° NNE
USA 245 3.9 22:57:48 10° SE 23:01:10 53° SSW 23:05:21 10° WNW
SMAP 3.7 22:56:42 10° ENE 23:01:25 63° SSE 23:06:08 10° SW
CARTOSAT-1 3.9 22:57:36 10° SE 23:02:00 65° SW 23:05:53 13° WNW
Cosmos 494 Rocket 4.1 22:56:55 10° W 23:02:08 57° NNW 23:07:19 10° ENE
IRIDIUM 103 4.4 22:56:58 10° SSW 23:02:20 81° W 23:07:41 10° N
ERS-1 Rocket 3.2 22:57:24 10° SE 23:02:32 71° SSW 23:07:22 12° WNW
Aureole 2 Rocket 4.4 23:00:25 10° WSW 23:02:36 15° WNW 23:02:36 15° WNW
Cosmos 2026 Rocket 3.9 22:57:04 10° SSW 23:03:15 75° WNW 23:09:23 10° NNE
H-2A R/B 4.2 23:01:36 10° SSE 23:05:19 24° E 23:08:57 10° NE
Cosmos 1758 Rocket 4.2 23:01:51 11° WNW 23:06:12 58° SSW 23:10:47 10° SE
Cosmos 1626 3.0 23:02:55 11° WNW 23:06:31 50° SSW 23:10:17 10° SE
Cosmos 1515 4.3 23:02:37 10° SW 23:06:31 61° SE 23:10:24 10° ENE
Spot 2 Rocket 4.0 23:01:21 10° ESE 23:06:31 64° SSW 23:11:41 10° W
ATLAS 2AS CENTAUR R/B 3.8 23:03:59 16° NNW 23:06:57 22° NNE 23:11:40 10° ENE
Cosmos 1825 3.0 23:05:04 14° N 23:08:08 46° ENE 23:11:53 10° SSE
Cosmos 2251 Rocket 3.6 23:03:06 10° W 23:08:22 61° N 23:13:37 10° ENE
IRAS Rocket 4.4 23:02:56 10° SE 23:08:42 71° NE 23:13:17 17° NNW
Cosmos 676 Rocket 4.3 23:04:53 16° NW 23:08:59 54° NNE 23:14:10 10° E
Cosmos 1605 Rocket 4.2 23:03:51 13° WNW 23:09:27 70° SW 23:15:40 10° SE
Cosmos 1943 Rocket 4.2 23:08:47 10° WSW 23:09:54 11° W 23:11:02 10° W
Cosmos 1437 Rocket 3.5 23:06:01 10° W 23:10:03 55° SSW 23:14:10 10° ESE
Cosmos 1703 Rocket 3.6 23:05:32 10° SW 23:10:07 85° WNW 23:14:43 10° NNE
Cosmos 1602 Rocket 4.4 23:06:13 10° W 23:10:36 50° SSW 23:15:03 10° ESE
COSMOS 2441 4.4 23:06:04 10° NNE 23:11:03 72° WNW 23:16:03 10° SW
CZ-4B R/B 3.2 23:06:21 10° NE 23:11:46 90° SE 23:17:17 10° SW
Helios 1A Rocket 3.0 23:07:39 10° NE 23:11:56 88° SE 23:16:13 10° SW
Cosmos 2242 Rocket 3.6 23:07:48 10° SSW 23:12:26 72° WNW 23:17:05 10° NNE
Cosmos 2221 Rocket 3.8 23:07:54 10° SW 23:12:36 79° SE 23:17:13 10° NE
Cosmos 1821 Rocket 4.5 23:06:21 10° WNW 23:12:36 61° SSW 23:18:58 10° SE
Cosmos 1408 3.2 23:10:01 16° N 23:12:54 53° ENE 23:16:36 10° SSE
PSLV R/B 3.7 23:09:16 10° NE 23:13:05 89° NW 23:16:57 10° SW
Cosmos 2228 Rocket 4.0 23:09:02 10° SSW 23:13:16 35° W 23:16:10 18° NNW
MSX 3.9 23:07:28 10° NNE 23:13:16 67° WNW 23:19:08 10° SW
Cosmos 1025 Rocket 4.3 23:09:57 10° WSW 23:14:18 46° S 23:18:41 10° E
Cosmos 1315 Rocket 3.0 23:11:28 10° SW 23:15:26 54° WNW 23:19:26 10° NNE
Cosmos 1151 Rocket 4.3 23:12:57 10° SSW 23:16:44 27° W 23:19:15 17° NW
SL-16 R/B 2.6 23:11:23 10° W 23:16:45 42° NNW 23:22:06 10° NE
Cosmos 2151 3.2 23:13:27 17° NNW 23:16:46 72° ENE 23:21:12 10° SE
Spot 4 3.9 23:11:54 10° SE 23:16:50 89° NE 23:20:40 17° NW
Cosmos 389 Rocket 3.6 23:14:04 10° W 23:17:41 48° S 23:21:21 10° ESE
CZ-4C R/B 4.5 23:13:31 10° SSE 23:17:46 43° ENE 23:21:42 11° N
Cosmos 1892 2.9 23:15:01 18° NNW 23:17:49 68° ENE 23:21:42 10° SE
Meteor 1-31 Rocket 2.7 23:14:11 10° NNE 23:18:06 78° WNW 23:22:03 10° SW
Cosmos 1500 Rocket 4.2 23:14:12 13° N 23:18:11 53° ENE 23:22:38 10° SSE
Lacrosse 4 Rocket 2.7 23:16:04 17° NW 23:18:13 24° NNW 23:21:51 10° NE
Cosmos 1464 Rocket 4.5 23:12:16 10° N 23:18:29 60° ENE 23:24:38 10° SSE
Okean 3 3.8 23:14:07 10° SW 23:18:30 73° SE 23:22:50 10° NE
Cosmos 1655 Rocket 4.0 23:12:06 10° SSW 23:18:33 83° WNW 23:24:56 10° NNE
SJ-12 4.1 23:14:57 10° NE 23:19:11 81° SE 23:23:28 10° SW
USA 186 3.6 23:17:23 10° ESE 23:19:23 22° S 23:21:26 10° SW
IRIDIUM 106 4.4 23:15:16 10° SSW 23:20:37 73° W 23:25:56 10° N
Meteor 1-19 Rocket 4.2 23:15:31 10° SW 23:21:13 90° NNW 23:26:48 10° NE
Cosmos 1812 2.8 23:17:37 10° SSW 23:21:34 61° WNW 23:25:30 10° NNE
Cosmos 1782 3.5 23:17:52 10° SSW 23:21:45 40° W 23:24:34 17° NNW
Cosmos 1862 Rocket 3.6 23:18:04 10° SSW 23:22:26 59° WNW 23:26:49 10° N
Resurs 01 Rocket 2.5 23:18:07 10° ESE 23:22:30 51° S 23:26:53 10° W
Cosmos 158 Rocket 4.4 23:18:40 10° WSW 23:23:12 36° NW 23:27:42 10° NNE
IDEFIX/ARIANE 42P 2.7 23:18:08 10° N 23:23:23 57° WNW 23:28:38 10° SSW
RESURS DK-1 4.1 23:21:02 13° N 23:23:29 21° NE 23:26:39 10° E
Cosmos 2100 Rocket 4.1 23:18:49 15° NW 23:24:04 80° SW 23:30:23 10° SE
Cosmos 1674 Rocket 4.1 23:19:35 10° SW 23:24:11 68° SE 23:28:45 10° NE
Feng Yun 1-1 Rocket 4.4 23:19:00 10° ENE 23:24:32 81° SE 23:30:03 10° SW
Cosmos 1190 Rocket 4.1 23:21:02 13° WNW 23:25:44 59° NNE 23:30:57 10° E
Envisat 3.6 23:20:37 10° ENE 23:25:44 62° SSE 23:30:52 10° SW
Meteor PRIRODA 3.7 23:21:54 10° NNE 23:25:46 83° NW 23:29:38 10° SW
Cosmos 2278 4.4 23:20:51 10° WSW 23:25:54 32° NW 23:30:55 10° NNE
Meteor 1-21 Rocket 4.5 23:21:01 11° WNW 23:26:39 72° SSW 23:32:23 10° ESE
Cosmos 1633 4.5 23:26:47 10° NNE 23:30:01 28° E 23:33:15 10° SSE
Meteor 2-13 Rocket 4.4 23:24:21 10° SW 23:30:34 82° WNW 23:36:45 10° NNE
CZ-2C R/B 3.5 23:28:59 18° NNW 23:31:19 34° W 23:34:51 10° SSW
PSLV R/B 3.8 23:27:11 10° N 23:31:23 50° WNW 23:35:36 10° SSW
H-2A R/B 2.8 23:26:22 10° ESE 23:31:39 56° S 23:36:47 10° W
Okean O Rocket 1.7 23:28:48 10° NE 23:33:19 90° W 23:37:49 10° SW
IGS 5A 4.2 23:29:22 10° SE 23:33:30 52° SSW 23:37:38 10° W
Cosmos 1328 4.3 23:30:16 14° WNW 23:33:39 58° SW 23:37:41 10° SE
Cosmos 1400 Rocket 3.6 23:29:49 10° SW 23:33:45 37° WNW 23:36:52 15° NNW
Meteor 1-18 Rocket 4.2 23:29:37 10° SW 23:35:29 79° NW 23:41:12 10° NNE
ADEOS II 2.9 23:32:51 16° NNW 23:36:36 34° W 23:41:29 10° SSW
Cosmos 1408 Rocket 3.7 23:33:41 16° NNW 23:37:15 75° ENE 23:41:45 10° SE
Meteor 1-4 Rocket 3.6 23:35:24 10° WSW 23:39:00 47° S 23:42:39 10° ESE
YAOGAN 11 4.2 23:35:57 10° SE 23:40:30 87° NE 23:44:11 16° NW
Cosmos 1725 Rocket 4.1 23:35:05 15° NW 23:40:36 87° SW 23:47:05 10° SE
Okean 1-7 3.0 23:36:13 10° SW 23:40:37 74° WNW 23:45:03 10° NNE
CZ-4B R/B 2.7 23:36:49 10° NNE 23:40:45 63° WNW 23:44:33 10° SW
Meteor 1-24 Rocket 4.3 23:35:22 10° W 23:41:19 63° S 23:47:04 10° ESE
Cosmos 1850 Rocket 4.4 23:37:03 15° NW 23:41:19 53° NNE 23:46:36 10° ESE
CZ-4B DEB 4.2 23:35:51 10° NNE 23:41:26 74° NW 23:47:01 10° SW
CZ-4B R/B 4.3 23:39:55 10° SE 23:41:51 15° ESE 23:43:47 10° ENE
ARGOS 3.8 23:36:41 10° ESE 23:42:05 59° S 23:47:28 10° WSW
Cosmos 2333 Rocket 2.6 23:36:46 10° WNW 23:42:17 45° N 23:47:47 10° ENE
Cosmos 1269 Rocket 4.2 23:37:09 10° W 23:42:24 53° NNW 23:47:37 10° NE
Cosmos 1943 4.4 23:38:16 12° NNW 23:42:47 31° NE 23:47:42 10° ESE
SL-16 R/B 3.7 23:37:05 10° SSE 23:43:01 41° E 23:48:54 10° NNE
Cosmos 1674 4.0 23:39:44 10° WSW 23:43:29 41° S 23:47:16 10° ESE
YAOGAN 1 3.4 23:40:20 10° E 23:44:41 56° SSE 23:49:03 10° SW
Cosmos 1484 Rocket 2.8 23:41:44 10° NE 23:45:41 85° NW 23:49:44 10° SW
NOSS 0 Rocket 4.4 23:40:29 13° WNW 23:45:49 43° N 23:51:43 10° ENE
Okean 1 3.3 23:41:41 10° SW 23:45:52 82° WNW 23:50:00 10° NNE
Cosmos 1378 4.4 23:42:28 10° SW 23:46:11 45° SSE 23:49:54 10° E
Cosmos 1271 Rocket 3.1 23:44:09 14° WNW 23:47:43 66° SSW 23:51:51 10° SE
Cosmos 1092 Rocket 4.2 23:42:25 10° SSW 23:48:38 54° W 23:54:47 10° N
ALOS 2.3 23:44:48 10° NE 23:49:36 89° ESE 23:54:25 10° SW
SPOT 5 3.2 23:45:24 10° SE 23:50:02 59° SSW 23:54:29 10° W
Resurs 1-4 Rocket 3.6 23:46:54 13° WNW 23:50:25 23° WSW 23:54:42 10° SSW
Cosmos 2173 Rocket 4.1 23:45:43 14° NW 23:51:15 73° SW 23:57:29 10° SE
Cosmos 2237 Rocket 2.7 23:47:17 13° WNW 23:52:02 44° N 23:57:25 10° E
Cosmos 1707 Rocket 4.3 23:47:54 10° SSW 23:52:06 38° W 23:55:50 13° NNW
Landsat 7 4.4 23:47:30 10° ESE 23:52:16 57° SSW 23:57:02 10° W
SJ 16-02 4.3 23:53:16 10° ENE 23:54:55 12° E 23:56:34 10° ESE
Cosmos 1707 4.1 23:51:11 10° WSW 23:55:01 42° S 23:58:49 10° E
YAOGAN 6 3.8 23:51:56 10° E 23:55:24 45° SSE 23:58:53 10° SW
